Simultaneous Nadir Overpasses (SNOs) Predictions

Prediction of SNOs between AQUA and METOP-A Satellite Orbit:

Table of predicted SNOs for the next 14.0 days since TLE Epoch: 8/17/2013
Index Date (AQUA) Time (AQUA) Lat,Lon (AQUA) SZA (AQUA ) Date (METOP-A) Time (METOP-A) Lat,Lon (METOP-A) SZA (METOP-A ) Distance(km) Time Diff (sec)
1 08/17/2013 03:15:44 73.93, 125.13 60.58 08/17/2013 03:16:57 73.92, 125.04 60.57 2.85 73
2 08/19/2013 21:11:02 73.83,-143.49 61.36 08/19/2013 21:10:00 73.81,-143.49 61.35 2.66 62
3 08/19/2013 22:00:29 -73.91, 23.98 118.55 08/19/2013 22:00:40 -73.89, 24.04 118.57 2.28 11
4 08/19/2013 22:50:03 74.24,-169.15 61.83 08/19/2013 22:51:13 74.23,-167.79 61.76 41.23 70
5 08/22/2013 16:45:15 73.81, -77.00 62.27 08/22/2013 16:44:23 73.82, -77.06 62.29 2.44 52
6 08/22/2013 17:34:42 -73.88, 90.49 117.65 08/22/2013 17:35:03 -73.90, 90.47 117.63 3.01 21
7 08/22/2013 18:24:24 74.63,-103.64 63.18 08/22/2013 18:25:28 74.63,-100.34 63.07 97.29 64
8 08/25/2013 12:19:28 73.80, -10.54 63.22 08/25/2013 12:18:46 73.82, -10.65 63.25 3.75 42
9 08/25/2013 13:08:56 -73.92, 156.84 116.65 08/25/2013 13:09:26 -73.91, 156.88 116.67 1.91 30
10 08/28/2013 07:53:40 73.82, 55.86 64.22 08/28/2013 07:53:08 73.82, 55.76 64.23 3.10 32
11 08/28/2013 08:43:08 -73.93,-136.74 115.66 08/28/2013 08:43:48 -73.91,-136.71 115.69 3.14 40




NCC Satellite Simultaneous Nadir Overpasses (SNOs) Prediction Service
